User: anonymous   Login
Location: Unspecified
(0.0000°N, 0.0000°E)
Time: 23:15:13
(UTC+00:00)
Language:

CUBESAT XI-V - Orbit

View from above orbital plane
View from above orbital plane
View from above satellite
View from above satellite

Ground track
Ground track

The orbit data is extracted from the following two-line orbital elements,

1 28895U 05043F   19229.18851811  .00000058  00000-0  20032-4 0  9994
2 28895  97.9675   9.9070 0017349 159.5791 200.6109 14.63682259736182
Epoch (UTC): 17 August 2019 04:31:27
Eccentricity: 0.0017349
inclination: 97.9675°
perigee height: 669 km
apogee height: 693 km
right ascension of ascending node: 9.9070°
argument of perigee: 159.5791°
revolutions per day: 14.63682259
mean anomaly at epoch: 200.6109°
orbit number at epoch: 73618

The dashed part of the orbit path shows where the satellite is in the earth's shadow,  

DLR